Time,TemperatureF,DewpointF,PressureIn,WindDirection,WindDirectionDegrees,WindSpeedMPH,WindSpeedGustMPH,Humidity,HourlyPrecipIn,Conditions,Clouds,dailyrainin,SoftwareType,DateUTC
2013-04-07 00:02:00,32.0,-99.9,29.57,NE,45,3.0,5.0,-999,-99.99,,,-99.99,,2013-04-07 08:02:00,
2013-04-07 00:13:00,-999.0,-99.9,29.58,ENE,59,2.0,3.0,-999,-99.99,,,-99.99,,2013-04-07 08:13:00,
2013-04-07 00:23:00,-999.0,-99.9,29.58,NE,44,2.0,4.0,-999,-99.99,,,-99.99,,2013-04-07 08:23:00,
2013-04-07 00:33:00,-999.0,-99.9,29.59,NE,40,3.0,4.0,-999,-99.99,,,-99.99,,2013-04-07 08:33:00,
2013-04-07 00:43:00,-999.0,-99.9,29.59,NE,38,3.0,4.0,-999,-99.99,,,-99.99,,2013-04-07 08:43:00,
2013-04-07 00:53:00,-999.0,-99.9,29.59,NE,55,2.0,3.0,-999,-99.99,,,-99.99,,2013-04-07 08:53:00,
2013-04-07 01:02:00,-999.0,-99.9,29.59,NE,42,3.0,4.0,-999,-99.99,,,-99.99,,2013-04-07 09:02:00,
2013-04-07 01:13:00,-999.0,-99.9,29.59,East,81,2.0,4.0,-999,-99.99,,,-99.99,,2013-04-07 09:13:00,
2013-04-07 01:23:00,-999.0,-99.9,29.60,ESE,106,1.0,2.0,-999,-99.99,,,-99.99,,2013-04-07 09:23:00,
2013-04-07 01:34:00,31.0,-99.9,29.60,SE,136,2.0,4.0,-999,-99.99,,,-99.99,,2013-04-07 09:34:00,
2013-04-07 01:45:00,-999.0,-99.9,29.60,SE,132,2.0,4.0,-999,-99.99,,,-99.99,,2013-04-07 09:45:00,
2013-04-07 01:54:00,-999.0,-99.9,29.61,SSE,158,1.0,2.0,-999,-99.99,,,-99.99,,2013-04-07 09:54:00,
2013-04-07 02:05:00,31.0,-99.9,29.61,SSE,168,1.0,3.0,-999,-99.99,,,-99.99,,2013-04-07 10:05:00,
2013-04-07 02:23:00,30.0,-99.9,29.62,NE,51,1.0,1.0,-999,-99.99,,,-99.99,,2013-04-07 10:23:00,
2013-04-07 02:34:00,-999.0,-99.9,29.62,NNE,20,2.0,3.0,-999,-99.99,,,-99.99,,2013-04-07 10:34:00,
2013-04-07 02:54:00,-999.0,-99.9,29.63,ESE,106,0.0,2.0,-999,-99.99,,,-99.99,,2013-04-07 10:54:00,
2013-04-07 03:03:00,29.0,-99.9,29.63,ESE,121,-999.0,2.0,-999,-99.99,,,-99.99,,2013-04-07 11:03:00,
2013-04-07 03:23:00,-999.0,-99.9,29.63,NNE,12,1.0,4.0,-999,-99.99,,,-99.99,,2013-04-07 11:23:00,
2013-04-07 03:33:00,29.0,-99.9,29.63,NNE,18,4.0,5.0,-999,-99.99,,,-99.99,,2013-04-07 11:33:00,
2013-04-07 03:43:00,-999.0,-99.9,29.63,NNE,19,2.0,3.0,-999,-99.99,,,-99.99,,2013-04-07 11:43:00,
2013-04-07 03:53:00,-999.0,-99.9,29.63,East,92,0.0,1.0,-999,-99.99,,,-99.99,,2013-04-07 11:53:00,
2013-04-07 04:03:00,29.0,-99.9,29.64,SE,146,4.0,5.0,-999,-99.99,,,-99.99,,2013-04-07 12:03:00,
2013-04-07 04:13:00,29.0,-99.9,29.64,SE,125,2.0,4.0,-999,-99.99,,,-99.99,,2013-04-07 12:13:00,
2013-04-07 04:23:00,-999.0,-99.9,29.64,SE,135,2.0,3.0,-999,-99.99,,,-99.99,,2013-04-07 12:23:00,
2013-04-07 04:35:00,28.0,-99.9,29.64,ESE,123,1.0,3.0,-999,-99.99,,,-99.99,,2013-04-07 12:35:00,
2013-04-07 04:43:00,-999.0,-99.9,29.64,North,359,2.0,5.0,-999,-99.99,,,-99.99,,2013-04-07 12:43:00,
2013-04-07 04:54:00,-999.0,-99.9,29.64,East,89,1.0,2.0,-999,-99.99,,,-99.99,,2013-04-07 12:54:00,
2013-04-07 05:05:00,-999.0,-99.9,29.65,SE,139,3.0,3.0,-999,-99.99,,,-99.99,,2013-04-07 13:05:00,
2013-04-07 05:13:00,-999.0,-99.9,29.65,WSW,255,2.0,3.0,-999,-99.99,,,-99.99,,2013-04-07 13:13:00,
2013-04-07 05:23:00,-999.0,-99.9,29.65,NNE,30,1.0,3.0,-999,-99.99,,,-99.99,,2013-04-07 13:23:00,
2013-04-07 05:33:00,27.0,-99.9,29.65,ENE,68,3.0,4.0,-999,-99.99,,,-99.99,,2013-04-07 13:33:00,
2013-04-07 05:53:00,-999.0,-99.9,29.65,SE,137,3.0,4.0,-999,-99.99,,,-99.99,,2013-04-07 13:53:00,
2013-04-07 06:03:00,27.0,-99.9,29.66,SE,135,3.0,4.0,-999,-99.99,,,-99.99,,2013-04-07 14:03:00,
2013-04-07 06:13:00,-999.0,-99.9,29.66,SSE,161,4.0,6.0,-999,-99.99,,,-99.99,,2013-04-07 14:13:00,
2013-04-07 06:33:00,26.0,-99.9,29.66,ENE,66,2.0,4.0,-999,-99.99,,,-99.99,,2013-04-07 14:33:00,
2013-04-07 06:45:00,-999.0,-99.9,29.67,SE,128,2.0,3.0,-999,-99.99,,,-99.99,,2013-04-07 14:45:00,
2013-04-07 06:55:00,-999.0,-99.9,29.67,SE,144,2.0,2.0,-999,-99.99,,,-99.99,,2013-04-07 14:55:00,
2013-04-07 07:03:00,26.0,-99.9,29.67,SE,139,1.0,2.0,-999,-99.99,,,-99.99,,2013-04-07 15:03:00,
2013-04-07 07:13:00,-999.0,-99.9,29.67,NE,56,2.0,3.0,-999,-99.99,,,-99.99,,2013-04-07 15:13:00,
2013-04-07 07:23:00,-999.0,-99.9,29.68,ESE,117,0.0,1.0,-999,-99.99,,,-99.99,,2013-04-07 15:23:00,
2013-04-07 07:35:00,-999.0,-99.9,29.68,ENE,69,1.0,2.0,-999,-99.99,,,-99.99,,2013-04-07 15:35:00,
2013-04-07 07:55:00,-999.0,-99.9,29.68,North,2,2.0,5.0,-999,-99.99,,,-99.99,,2013-04-07 15:55:00,
2013-04-07 08:05:00,26.0,-99.9,29.68,NE,38,2.0,4.0,-999,-99.99,,,-99.99,,2013-04-07 16:05:00,
2013-04-07 08:14:00,-999.0,-99.9,29.68,East,96,1.0,2.0,-999,-99.99,,,-99.99,,2013-04-07 16:14:00,
2013-04-07 08:25:00,-999.0,-99.9,29.69,ESE,107,3.0,4.0,-999,-99.99,,,-99.99,,2013-04-07 16:25:00,
2013-04-07 08:34:00,26.0,-99.9,29.69,North,7,2.0,5.0,-999,-99.99,,,-99.99,,2013-04-07 16:34:00,
2013-04-07 08:44:00,-999.0,-99.9,29.69,ENE,65,2.0,3.0,-999,-99.99,,,-99.99,,2013-04-07 16:44:00,
2013-04-07 08:54:00,-999.0,-99.9,29.69,North,9,2.0,5.0,-999,-99.99,,,-99.99,,2013-04-07 16:54:00,
2013-04-07 09:05:00,28.0,-99.9,29.69,NNW,334,2.0,4.0,-999,-99.99,,,-99.99,,2013-04-07 17:05:00,
2013-04-07 09:14:00,-999.0,-99.9,29.70,NNW,343,1.0,6.0,-999,-99.99,,,-99.99,,2013-04-07 17:14:00,
2013-04-07 09:24:00,-999.0,-99.9,29.70,NNE,14,3.0,6.0,-999,-99.99,,,-99.99,,2013-04-07 17:24:00,
2013-04-07 09:34:00,27.0,-99.9,29.70,NNW,331,8.0,11.0,-999,-99.99,,,-99.99,,2013-04-07 17:34:00,
2013-04-07 09:44:00,-999.0,-99.9,29.70,NNE,13,1.0,7.0,-999,-99.99,,,-99.99,,2013-04-07 17:44:00,
2013-04-07 09:54:00,29.0,-99.9,29.71,West,267,2.0,5.0,-999,-99.99,,,-99.99,,2013-04-07 17:54:00,
2013-04-07 10:03:00,29.0,-99.9,29.71,West,267,2.0,5.0,-999,-99.99,,,-99.99,,2013-04-07 18:03:00,
2013-04-07 10:14:00,29.0,-99.9,29.71,North,-999,2.0,9.0,-999,-99.99,,,-99.99,,2013-04-07 18:14:00,
2013-04-07 10:23:00,-999.0,-99.9,29.72,North,351,2.0,5.0,-999,-99.99,,,-99.99,,2013-04-07 18:23:00,
2013-04-07 10:33:00,30.0,-99.9,29.72,NNW,342,1.0,6.0,-999,-99.99,,,-99.99,,2013-04-07 18:33:00,
2013-04-07 10:44:00,-999.0,-99.9,29.72,WNW,296,3.0,14.0,-999,-99.99,,,-99.99,,2013-04-07 18:44:00,
2013-04-07 10:53:00,-999.0,-99.9,29.72,West,271,1.0,6.0,-999,-99.99,,,-99.99,,2013-04-07 18:53:00,
2013-04-07 11:03:00,30.0,-99.9,29.72,West,264,5.0,9.0,-999,-99.99,,,-99.99,,2013-04-07 19:03:00,
2013-04-07 11:13:00,-999.0,-99.9,29.73,WNW,285,3.0,6.0,-999,-99.99,,,-99.99,,2013-04-07 19:13:00,
2013-04-07 11:23:00,-999.0,-99.9,29.73,WSW,257,15.0,18.0,-999,-99.99,,,-99.99,,2013-04-07 19:23:00,
2013-04-07 11:33:00,29.0,-99.9,29.73,West,259,10.0,20.0,-999,-99.99,,,-99.99,,2013-04-07 19:33:00,
2013-04-07 11:43:00,27.0,-99.9,29.73,West,266,16.0,21.0,-999,-99.99,,,-99.99,,2013-04-07 19:43:00,
2013-04-07 11:55:00,27.0,-99.9,29.73,West,266,16.0,21.0,-999,-99.99,,,-99.99,,2013-04-07 19:55:00,
2013-04-07 12:03:00,28.0,-99.9,29.75,West,269,12.0,18.0,-999,-99.99,,,-99.99,,2013-04-07 20:03:00,
2013-04-07 12:13:00,-999.0,-99.9,29.75,West,262,14.0,20.0,-999,-99.99,,,-99.99,,2013-04-07 20:13:00,
2013-04-07 12:23:00,27.0,-99.9,29.75,West,260,17.0,24.0,-999,-99.99,,,-99.99,,2013-04-07 20:23:00,
2013-04-07 12:33:00,-999.0,-99.9,29.75,West,268,16.0,21.0,-999,-99.99,,,-99.99,,2013-04-07 20:33:00,
2013-04-07 12:44:00,-999.0,-99.9,29.75,West,267,17.0,22.0,-999,-99.99,,,-99.99,,2013-04-07 20:44:00,
2013-04-07 12:55:00,-999.0,-99.9,29.76,West,264,17.0,21.0,-999,-99.99,,,-99.99,,2013-04-07 20:55:00,
2013-04-07 13:04:00,27.0,-99.9,29.76,West,259,16.0,23.0,-999,-99.99,,,-99.99,,2013-04-07 21:04:00,
2013-04-07 13:14:00,-999.0,-99.9,29.76,West,265,16.0,21.0,-999,-99.99,,,-99.99,,2013-04-07 21:14:00,
2013-04-07 13:23:00,-999.0,-99.9,29.76,West,265,13.0,20.0,-999,-99.99,,,-99.99,,2013-04-07 21:23:00,
2013-04-07 13:35:00,27.0,-99.9,29.76,West,270,17.0,21.0,-999,-99.99,,,-99.99,,2013-04-07 21:35:00,
2013-04-07 13:45:00,-999.0,-99.9,29.77,West,269,16.0,21.0,-999,-99.99,,,-99.99,,2013-04-07 21:45:00,
2013-04-07 13:55:00,-999.0,-99.9,29.77,West,262,16.0,21.0,-999,-99.99,,,-99.99,,2013-04-07 21:55:00,
2013-04-07 14:05:00,-999.0,-99.9,29.77,West,263,13.0,18.0,-999,-99.99,,,-99.99,,2013-04-07 22:05:00,
2013-04-07 14:15:00,-999.0,-99.9,29.77,West,273,14.0,18.0,-999,-99.99,,,-99.99,,2013-04-07 22:15:00,
2013-04-07 14:24:00,-999.0,-99.9,29.77,West,262,14.0,20.0,-999,-99.99,,,-99.99,,2013-04-07 22:24:00,
2013-04-07 14:35:00,-999.0,-99.9,29.77,West,262,14.0,20.0,-999,-99.99,,,-99.99,,2013-04-07 22:35:00,
2013-04-07 14:44:00,-999.0,-99.9,29.77,West,262,14.0,20.0,-999,-99.99,,,-99.99,,2013-04-07 22:44:00,
2013-04-07 14:54:00,-999.0,-99.9,29.78,WNW,290,11.0,17.0,-999,-99.99,,,-99.99,,2013-04-07 22:54:00,
2013-04-07 15:04:00,-999.0,-99.9,29.78,NNW,330,10.0,19.0,-999,-99.99,,,-99.99,,2013-04-07 23:04:00,
2013-04-07 15:13:00,-999.0,-99.9,29.78,NNW,333,11.0,17.0,-999,-99.99,,,-99.99,,2013-04-07 23:13:00,
2013-04-07 15:23:00,-999.0,-99.9,29.78,NNW,328,9.0,25.0,-999,-99.99,,,-99.99,,2013-04-07 23:23:00,
2013-04-07 15:33:00,28.0,-99.9,29.78,NNW,340,8.0,15.0,-999,-99.99,,,-99.99,,2013-04-07 23:33:00,
2013-04-07 15:43:00,-999.0,-99.9,29.78,NW,317,15.0,21.0,-999,-99.99,,,-99.99,,2013-04-07 23:43:00,
2013-04-07 15:53:00,-999.0,-99.9,29.78,NW,313,16.0,23.0,-999,-99.99,,,-99.99,,2013-04-07 23:53:00,
2013-04-07 16:03:00,27.0,-99.9,29.78,NW,308,13.0,19.0,-999,-99.99,,,-99.99,,2013-04-08 00:03:00,
2013-04-07 16:13:00,27.0,-99.9,29.78,NNW,340,8.0,16.0,-999,-99.99,,,-99.99,,2013-04-08 00:13:00,
2013-04-07 16:23:00,27.0,-99.9,29.78,NNW,340,8.0,16.0,-999,-99.99,,,-99.99,,2013-04-08 00:23:00,
2013-04-07 16:33:00,27.0,-99.9,29.77,NW,321,10.0,17.0,-999,-99.99,,,-99.99,,2013-04-08 00:33:00,
2013-04-07 16:43:00,-999.0,-99.9,29.77,WNW,301,9.0,17.0,-999,-99.99,,,-99.99,,2013-04-08 00:43:00,
2013-04-07 16:53:00,-999.0,-99.9,29.77,NW,305,11.0,20.0,-999,-99.99,,,-99.99,,2013-04-08 00:53:00,
2013-04-07 17:03:00,28.0,-99.9,29.77,NNW,329,8.0,15.0,-999,-99.99,,,-99.99,,2013-04-08 01:03:00,
2013-04-07 17:13:00,-999.0,-99.9,29.77,NW,319,9.0,16.0,-999,-99.99,,,-99.99,,2013-04-08 01:13:00,
2013-04-07 17:23:00,-999.0,-99.9,29.77,NW,312,5.0,12.0,-999,-99.99,,,-99.99,,2013-04-08 01:23:00,
2013-04-07 17:34:00,-999.0,-99.9,29.77,NW,311,4.0,11.0,-999,-99.99,,,-99.99,,2013-04-08 01:34:00,
2013-04-07 17:45:00,-999.0,-99.9,29.77,NW,308,4.0,11.0,-999,-99.99,,,-99.99,,2013-04-08 01:45:00,
2013-04-07 17:55:00,-999.0,-99.9,29.77,North,357,7.0,11.0,-999,-99.99,,,-99.99,,2013-04-08 01:55:00,
2013-04-07 18:03:00,28.0,-99.9,29.77,North,357,6.0,11.0,-999,-99.99,,,-99.99,,2013-04-08 02:03:00,
2013-04-07 18:12:00,-999.0,-99.9,29.77,SW,234,1.0,2.0,-999,-99.99,,,-99.99,,2013-04-08 02:12:00,
2013-04-07 18:22:00,-999.0,-99.9,29.77,NW,326,7.0,10.0,-999,-99.99,,,-99.99,,2013-04-08 02:22:00,
2013-04-07 18:33:00,29.0,-99.9,29.77,WSW,257,1.0,11.0,-999,-99.99,,,-99.99,,2013-04-08 02:33:00,
2013-04-07 18:49:00,-999.0,-99.9,29.77,NNE,14,8.0,15.0,-999,-99.99,,,-99.99,,2013-04-08 02:49:00,
2013-04-07 19:09:00,27.0,-99.9,29.77,NNE,14,7.0,12.0,-999,-99.99,,,-99.99,,2013-04-08 03:09:00,
2013-04-07 19:16:00,-999.0,-99.9,29.77,NNE,32,8.0,12.0,-999,-99.99,,,-99.99,,2013-04-08 03:16:00,
2013-04-07 19:26:00,-999.0,-99.9,29.76,NNE,21,9.0,15.0,-999,-99.99,,,-99.99,,2013-04-08 03:26:00,
2013-04-07 19:37:00,26.0,-99.9,29.76,North,11,7.0,11.0,-999,-99.99,,,-99.99,,2013-04-08 03:37:00,
2013-04-07 19:48:00,-999.0,-99.9,29.76,NNE,16,8.0,11.0,-999,-99.99,,,-99.99,,2013-04-08 03:48:00,
2013-04-07 19:58:00,-999.0,-99.9,29.76,NNE,16,7.0,11.0,-999,-99.99,,,-99.99,,2013-04-08 03:58:00,
2013-04-07 20:03:00,27.0,-99.9,29.76,North,2,6.0,12.0,-999,-99.99,,,-99.99,,2013-04-08 04:03:00,
2013-04-07 20:13:00,-999.0,-99.9,29.75,North,2,9.0,13.0,-999,-99.99,,,-99.99,,2013-04-08 04:13:00,
2013-04-07 20:23:00,-999.0,-99.9,29.76,North,-999,9.0,12.0,-999,-99.99,,,-99.99,,2013-04-08 04:23:00,
2013-04-07 20:34:00,25.0,-99.9,29.76,North,353,8.0,14.0,-999,-99.99,,,-99.99,,2013-04-08 04:34:00,
2013-04-07 20:45:00,-999.0,-99.9,29.75,North,349,4.0,9.0,-999,-99.99,,,-99.99,,2013-04-08 04:45:00,
2013-04-07 20:53:00,-999.0,-99.9,29.75,NNW,334,4.0,6.0,-999,-99.99,,,-99.99,,2013-04-08 04:53:00,
2013-04-07 21:03:00,25.0,-99.9,29.75,NW,312,6.0,8.0,-999,-99.99,,,-99.99,,2013-04-08 05:03:00,
2013-04-07 21:12:00,26.0,-99.9,29.75,NNE,15,5.0,7.0,-999,-99.99,,,-99.99,,2013-04-08 05:12:00,
2013-04-07 21:22:00,26.0,-99.9,29.75,NNE,15,5.0,7.0,-999,-99.99,,,-99.99,,2013-04-08 05:22:00,
2013-04-07 21:32:00,-999.0,-99.9,29.76,NNW,330,6.0,8.0,-999,-99.99,,,-99.99,,2013-04-08 05:32:00,
2013-04-07 21:42:00,-999.0,-99.9,29.76,NW,310,6.0,8.0,-999,-99.99,,,-99.99,,2013-04-08 05:42:00,
2013-04-07 21:53:00,-999.0,-99.9,29.76,NNW,346,5.0,10.0,-999,-99.99,,,-99.99,,2013-04-08 05:53:00,
2013-04-07 22:02:00,25.0,-99.9,29.76,NNW,331,5.0,8.0,-999,-99.99,,,-99.99,,2013-04-08 06:02:00,
2013-04-07 22:12:00,-999.0,-99.9,29.76,NW,323,7.0,8.0,-999,-99.99,,,-99.99,,2013-04-08 06:12:00,
2013-04-07 22:22:00,25.0,-99.9,29.76,NW,316,8.0,9.0,-999,-99.99,,,-99.99,,2013-04-08 06:22:00,
2013-04-07 22:32:00,25.0,-99.9,29.76,NW,316,8.0,9.0,-999,-99.99,,,-99.99,,2013-04-08 06:32:00,
2013-04-07 22:43:00,-999.0,-99.9,29.76,West,281,9.0,9.0,-999,-99.99,,,-99.99,,2013-04-08 06:43:00,
2013-04-07 22:53:00,-999.0,-99.9,29.76,WNW,297,7.0,9.0,-999,-99.99,,,-99.99,,2013-04-08 06:53:00,
2013-04-07 23:02:00,25.0,-99.9,29.76,WNW,293,5.0,9.0,-999,-99.99,,,-99.99,,2013-04-08 07:02:00,
2013-04-07 23:12:00,-999.0,-99.9,29.76,NW,310,7.0,11.0,-999,-99.99,,,-99.99,,2013-04-08 07:12:00,
2013-04-07 23:22:00,-999.0,-99.9,29.76,NW,310,7.0,11.0,-999,-99.99,,,-99.99,,2013-04-08 07:22:00,
2013-04-07 23:33:00,-999.0,-99.9,29.76,NW,310,7.0,11.0,-999,-99.99,,,-99.99,,2013-04-08 07:33:00,
2013-04-07 23:42:00,-999.0,-99.9,29.76,WNW,298,6.0,12.0,-999,-99.99,,,-99.99,,2013-04-08 07:42:00,
2013-04-07 23:53:00,-999.0,-99.9,29.76,WNW,296,8.0,13.0,-999,-99.99,,,-99.99,,2013-04-08 07:53:00,